Location: Saint-Palais-sur-Mer
(45.6429°N, 1.0859°W)
Time: 00:05:25
(UTC+01:00)

Tiros 1 despin weight - Pass Details

Date: 09 February 2026
Orbit: 556 x 593 km, 48.2° (Epoch: 13 March)

Event Time Altitude Azimuth Distance (km) Brightness Sun altitude
Rises 19:23:33 0° 227° (SW) 2,721 ? -11.2°
Reaches altitude 10° 19:25:51 10° 221° (SW) 1,829 ? -11.6°
Maximum altitude 19:29:49 43° 149° (SSE) 785 ? -12.2°
Enters shadow 19:32:22 20° 87° (E) 1,326 ? -12.7°
Drops below altitude 10° 19:33:48 10° 78° (ENE) 1,844 - -12.9°
Sets 19:36:08 0° 71° (ENE) 2,746 - -13.3°
